Regional Weather Roundup
Issued by NWS

Home | Current Version | Previous Version | Graphics & Text | Print | Product List | Glossary Off
Versions: 1 2 3 4 5 6 7 8 9 10 11 12 13 14 15 16 17 18 19 20 21 22 23 24 25 26 27 28 29 30 31 32 33 34 35 36 37 38 39 40 41 42 43 44 45 46 47 48 49 50

451
ASUS43 KTOP 230059
RWRKS

WEATHER ROUNDUP FOR KANSAS
NATIONAL WEATHER SERVICE GOODLAND KS
700 PM CST WED FEB 22 2017

NOTE:  "FAIR" INDICATES FEW OR NO CLOUDS BELOW 12,000 FEET WITH NO
SIGNIFICANT WEATHER AND/OR OBSTRUCTIONS TO VISIBILITY.

KSZ001>006-013>018-027>032-041>047-230200-
NORTHWEST KANSAS

CITY           SKY/WX    TMP DP  RH WIND       PRES   REMARKS
GOODLAND       CLEAR     48  21  34 E7        29.73F
HAYS             N/A     55  30  38 NE10      29.70F
HILL CITY      CLEAR     50  23  34 NE9       29.72S
RUSSELL        CLOUDY    61  31  32 CALM      29.70S
$$

KSZ061>065-074>080-084>089-230200-
SOUTHWEST KANSAS

CITY           SKY/WX    TMP DP  RH WIND       PRES   REMARKS
DODGE CITY     CLEAR     60  27  28 E6        29.71S
ELKHART          N/A     64  27  24 SE6         N/A
GARDEN CITY    CLEAR     57  21  24 E8        29.70F
GREAT BEND     CLEAR     59  34  39 NE8       29.71S
LIBERAL        CLOUDY    64  19  17 E9        29.71S
$$

KSZ066>073-081>083-090>101-230200-
SOUTHEAST KANSAS

CITY           SKY/WX    TMP DP  RH WIND       PRES   REMARKS
CHANUTE        CLEAR     65  40  39 S10       29.67S
COFFEYVILLE    CLEAR     68  44  42 S6        29.69R
HUTCHINSON     CLEAR     64  30  27 N7        29.70R
MEDICINE LODGE   N/A     69  29  22 SE6       29.69R
NEWTON         CLEAR     63  47  55 W3        29.70R
PARSONS        CLEAR     67  42  40 S5        29.70R
WICHITA INTL   PTCLDY    58  48  69 S9        29.69R
WICHITA JABRA  CLEAR     64  47  53 S9        29.68R
WINFIELD       CLEAR     62  46  55 CALM      29.69S
$$

KSZ007>012-019>026-033>040-048>060-102>105-230200-
NORTHEAST KANSAS

CITY           SKY/WX    TMP DP  RH WIND       PRES   REMARKS
CONCORDIA      CLOUDY    64  30  27 N7        29.69S
EMPORIA        PTCLDY    65  40  39 W5        29.67R
LAWRENCE       CLOUDY    66  35  31 W6        29.66R
MANHATTAN      PTCLDY    58  37  45 CALM      29.67R
OLATHE IND     CLOUDY    65  35  33 NW5       29.67R
OLATHE EXE     CLOUDY    68  35  29 CALM      29.66R
SALINA         PTCLDY    66  34  30 W8        29.70R
TOPEKA BILLARD CLOUDY    59  41  51 CALM      29.66R
TOPEKA FORBES  CLOUDY    60  39  45 W5        29.67R
$$




USA.gov is the U.S. government's official web portal to all federal, state and local government web resources and services.